Forside
METAR-TAF:

METAR-TAF

Lufthavne :

Galesburg Municipal Airport

Galesburg, Illinois, USA

Breddekreds: 40-56-17N, længdekreds: 090-25-52W, højde: 233 m

Aktuelle vejr

Denne rapport blev lavet for 30 minutter siden, kl. 18:15 UTC
Vind 14 kt fra sydøst med vindstød på up til 20 kt
Temperatur -9°C
Fugtighed 67%
Tryk 1030 hPa
Sigt: 16.1 km
Spredte skyer i en højde af 11000 ft

METAR: KGBG 211815Z AUTO 13014G20KT 10SM SCT110 M09/M14 A3041 RMK AO2 T10911145

Tid: 12:45 (18:45 UTC)


TAF: fraværende

Vejrobservationer og prognoser fra mere end 4000 lufthavne (METAR og TAF).

De gule og røde prikker repræsenterer de meteorologiske stationer.

Flyt musen over at se navnet på stationen.

Så klik over at se vejr observationer og prognoser.

At skifte det kort: Klik på de grønne knapper med et sort kors for at zoome ind; på den grønne knap med en bindestreg for at zoome ud; eller på de grønne pile for tilstødende kort.


METAR-TAF: